CHOLLIMA-1 R/B

基本信息
目录编号:
58401
目录名称:
CHOLLIMA-1 R/B
国际标识:
2023-179B
轨道中心:
EARTH
物体状态:
在轨
发射日期:
2023-11-21 UTC
国别:
(KP)
轨道信息
数据来源: 国际轨道数据
星历时间: 2026-07-14T02:58:59+0800
半长轴: 6750.989km
偏心率: 0.0015646
轨道倾角: 97.306°
近地点辐角: 60.568°
升交点赤经: 102.826°
平近点角: 299.714°
近地点: 362.289km
远地点: 383.415km
周期: 92.005分钟
每日圈数: 15.651347
详细信息
发射场:
YUN
轨道高度:
LEO
数据来源:
AOE Integration Group
参考系:
TEME
时间系统:
UTC
历元类型:
SGP4
2D轨道图
3D轨道图
轨道高度分析图
轨道倾角分析图
轨道综合分析图
查看轨道综合分析图